Location: El Chorro
(10.0985°N, 67.3542°W)
Time: 19:08:12
(UTC+00:00)

Cosmos 1656 Rocket - Pass Details

Date: 15 November 2025
Orbit: 791 x 846 km, 71.1° (Epoch: 06 December)

Event Time Altitude Azimuth Distance (km) Brightness Sun altitude
Rises 22:16:13 0° 180° (S) 3,292 7.0 -3.7°
Reaches altitude 10° 22:18:44 10° 173° (S) 2,368 6.2 -4.3°
Maximum altitude 22:23:46 40° 104° (ESE) 1,171 4.1 -5.5°
Drops below altitude 10° 22:28:52 10° 36° (NE) 2,399 5.6 -6.7°
Sets 22:31:25 0° 29° (NNE) 3,339 6.4 -7.3°
